Weather History for Lone Rock, WI

Change the Weather History Date:

Saturday, January 5, 2013

  Actual Average Record
Temperature  
Mean Temperature 18 °F -  
Max Temperature 36 °F 26 °F 53 °F (2012)
Min Temperature 1 °F 12 °F -20 °F (1999)
Degree Days  
Heating Degree Days 46    
Moisture  
Dew Point 16 °F    
Average Humidity 79    
Maximum Humidity 92    
Minimum Humidity 69    
Precipitation  
Precipitation 0.00 in - - ()
Sea Level Pressure  
Sea Level Pressure 30.03 in    
Wind  
Wind Speed 5 mph (SW)    
Max Wind Speed 15 mph    
Max Gust Speed 22 mph    
Visibility 6 miles    
Events      
Averages and records for this station are not official NWS values.
T = Trace of Precipitation, MM = Missing Value Source: NWS Daily Summary

Daily Weather History Graph

Daily Weather History Graph

Search for Another Location

Airport:

Trip Planner

Search our weather history database for the weather conditions in past years. The results will help you decide how hot, cold, wet, or windy it might be!

Date:

Astronomy

Jan. 05, 2013 Rise Set
Actual Time 7:32 AM CST 4:40 PM CST
Civil Twilight 7:00 AM CST 5:12 PM CST
Nautical Twilight 6:24 AM CST 5:48 PM CST
Astronomical Twilight 5:50 AM CST 6:22 PM CST
Moon 12:33 AM CST (1/5) 11:34 AM CST (1/5)
Length of Visible Light 10h 11m
Length of Day
9h 07m
Last Quarter, 44% of the Moon is Illuminated
Jan 5
Last Quarter
Jan 11
New
Jan 18
First Quarter
Jan 26
Full
Feb 3
Last Quarter

Hourly Weather History & Observations

Time (CST) Temp. Windchill Dew Point Humidity Pressure Visibility Wind Dir Wind Speed Gust Speed Precip Events Conditions
12:05 AM 5.0 °F -4.1 °F 1.4 °F 85% 30.16 in 2.0 mi ESE 4.6 mph - N/A   Clear
12:21 AM 6.8 °F - 3.2 °F 85% 30.16 in 4.0 mi Calm Calm - N/A   Clear
12:56 AM 3.9 °F - 1.0 °F 88% 30.17 in 4.0 mi Calm Calm - N/A   Clear
1:56 AM 6.1 °F - 3.0 °F 87% 30.22 in 5.0 mi Calm Calm - N/A   Clear
2:56 AM 5.0 °F - 1.9 °F 87% 30.21 in 5.0 mi Calm Calm - N/A   Clear
3:56 AM 5.0 °F -5.6 °F 1.0 °F 84% 30.18 in 4.0 mi SSW 5.8 mph - N/A   Clear
4:56 AM 3.9 °F - -0.0 °F 84% 30.16 in 4.0 mi Calm Calm - N/A   Clear
5:38 AM 1.4 °F - -0.4 °F 92% 30.12 in 2.5 mi Calm Calm - N/A   Clear
5:48 AM 5.0 °F -4.1 °F 1.4 °F 85% 30.13 in 4.0 mi SSW 4.6 mph - N/A   Clear
5:56 AM 7.0 °F 0.1 °F 3.9 °F 87% 30.17 in 4.0 mi SW 3.5 mph - N/A   Clear
8:56 AM 8.1 °F 1.4 °F 3.0 °F 80% 30.13 in 4.0 mi NE 3.5 mph - N/A   Haze
9:56 AM 16.0 °F 10.4 °F 10.9 °F 81% 30.13 in 3.0 mi NE 3.5 mph - N/A   Haze
10:56 AM 21.9 °F 15.7 °F 17.1 °F 82% 30.09 in 4.0 mi NE 4.6 mph - N/A   Haze
11:56 AM 27.0 °F 19.5 °F 21.0 °F 78% 30.05 in 5.0 mi SSW 6.9 mph - N/A   Haze
12:56 PM 30.9 °F 26.2 °F 24.1 °F 76% 30.00 in 6.0 mi SSW 4.6 mph - N/A   Haze
1:56 PM 33.1 °F 25.5 °F 24.1 °F 70% 29.97 in 7.0 mi SW 9.2 mph - N/A   Clear
2:56 PM 32.0 °F 23.0 °F 24.1 °F 73% 29.96 in 8.0 mi SSW 11.5 mph - N/A   Partly Cloudy
3:20 PM 33.8 °F 27.0 °F 24.8 °F 70% 29.93 in 8.0 mi SSW 8.1 mph - N/A   Mostly Cloudy
3:56 PM 34.0 °F 26.0 °F 26.1 °F 73% 29.94 in 9.0 mi SW 10.4 mph 18.4 mph N/A   Overcast
4:56 PM 35.1 °F 29.3 °F 27.0 °F 72% 29.93 in 10.0 mi SW 6.9 mph - N/A   Overcast
6:49 PM 35.6 °F 27.5 °F 30.2 °F 81% 29.90 in 9.0 mi SSW 11.5 mph - N/A   Overcast
6:56 PM 36.0 °F 29.0 °F 30.0 °F 79% 29.92 in 9.0 mi SSW 9.2 mph - N/A   Overcast
7:52 PM 35.6 °F 29.2 °F 30.2 °F 81% 29.89 in 9.0 mi SW 8.1 mph - N/A   Overcast
7:56 PM 36.0 °F 29.0 °F 30.0 °F 79% 29.91 in 9.0 mi SW 9.2 mph - N/A   Overcast
8:47 PM 35.6 °F 28.0 °F 30.2 °F 81% 29.88 in 9.0 mi SW 10.4 mph - N/A   Overcast
8:56 PM 36.0 °F 28.5 °F 28.9 °F 76% 29.90 in 9.0 mi WSW 10.4 mph 19.6 mph N/A   Overcast
9:56 PM 36.0 °F 28.5 °F 28.0 °F 73% 29.90 in 9.0 mi West 10.4 mph - N/A   Overcast
10:56 PM 32.0 °F 21.6 °F 24.1 °F 73% 29.91 in 7.0 mi West 15.0 mph 21.9 mph N/A   Mostly Cloudy
11:14 PM 30.2 °F 21.3 °F 21.2 °F 69% 29.89 in 8.0 mi West 10.4 mph 21.9 mph N/A   Scattered Clouds
11:56 PM 27.0 °F 15.2 °F 19.0 °F 72% 29.92 in 7.0 mi West 15.0 mph - N/A   Mostly Cloudy